Printer-friendly version

IAU Minor Planet Center

Minor Planet Center

MPEC 2009-U131: COMET P/2009 QG31 (LA SAGRA)

The following Minor Planet Electronic Circular may be linked-to from your own Web pages, but must not otherwise be redistributed electronically.


Read MPEC 2009-U130 Read MPEC 2009-U132


M.P.E.C. 2009-U131                               Issued 2009 Oct. 30, 16:35 UT

     The Minor Planet Electronic Circulars contain information on unusual
         minor planets and routine data on comets.  They are published
   on behalf of Commission 20 of the International Astronomical Union by the
          Minor Planet Center, Smithsonian Astrophysical Observatory,
                          Cambridge, MA 02138, U.S.A.

             Prepared using the Tamkin Foundation Computer Network

                              MPC@CFA.HARVARD.EDU
          URL http://www.cfa.harvard.edu/iau/mpc.html  ISSN 1523-6714

                         COMET P/2009 QG31 (LA SAGRA)

Observations:
    PK09Q31G  C2009 10 15.83194 22 20 58.13 -09 06 30.4          19.7 N EU131473
    PK09Q31G  C2009 10 15.83541 22 20 58.18 -09 06 29.4          19.7 N EU131473
    PK09Q31G  C2009 10 24.84385 22 24 11.48 -08 23 58.5          19.5 N EU131213
    PK09Q31G  C2009 10 24.85319 22 24 11.74 -08 23 55.4          19.6 N EU131213
    PK09Q31G  C2009 10 25.83311 22 24 41.10 -08 18 43.4          19.5 N EU131130

Observer details:
130 Lumezzane.  Observers M. Casali, W. Marinello, M. Micheli, G. Pizzetti,
    A. Soffiantini.  Measurer W. Marinello.  0.40-m f/4.5 reflector + CCD.
213 Observatorio Montcabre.  Observer R. Naves.  Measurer M. Campas.  0.30-m
    f/10 Schmidt-Cassegrain + CCD.
473 Remanzacco.  Observers L. Donato, V. Gonano, E. Guido, V. Santini,
    G. Sostero.  0.45-m f/4.4 Newtonian reflector + CCD.

Orbital elements:
    P/2009 QG31 (La Sagra)
Epoch 2009 Oct. 16.0 TT = JDT 2455120.5
T 2009 Oct. 10.42971 TT                                 MPC
q   2.1478504            (2000.0)            P               Q
n   0.14585106     Peri.    5.92924     +0.99062486     +0.13499737
a   3.5743437      Node   346.25914     -0.12867986     +0.87065568
e   0.3990924      Incl.    5.05539     -0.04586817     +0.47300570
P   6.76
Residuals in seconds of arc
090816 J75  0.3+  0.6+    090917 493  0.3+  0.3-    091011 B37  0.5+  0.1-
090816 J75  0.6+  0.1-    090917 493  0.2+  0.3-    091011 B37  0.9+  0.3-
090816 J75  0.0   0.2+    090917 493  0.3+  0.3-    091012 474  0.0   0.3+
090819 J75  0.1-  0.3+    090918 E10  0.4-  0.2+    091012 474  0.0   0.1+
090819 J75  0.5+  0.7+    090918 E10  0.3+  0.4+    091012 473  0.5-  0.1-
090819 J75  0.2-  1.1-    090918 F65  0.1+  0.2+    091012 473  0.4-  0.1-
090819 J75  1.1+  0.7-    090918 E10  0.0   0.5+    091012 J47  1.2-  0.2-
090819 J75  0.5+  0.1+    090918 F65  0.2+  0.3+    091014 A77  0.6-  0.5+
090820 J75  0.3-  0.2+    090918 E16  0.0   0.2-    091015 G96  0.0   0.5-
090825 J75  0.5-  0.1-    090918 E16  0.2+  0.3-    091015 G96  0.2+  0.0
090825 J75  0.2-  0.5+    090918 E16  0.1+  0.3-    091015 G96  0.3+  0.4-
090825 J75  0.7+  0.4+    090918 E16  0.4+  0.0     091015 G96  0.6-  0.0
090826 703  1.5-  0.7-    090919 D90  0.4-  1.2-    091015 585  0.9+  0.0
090826 703  0.5-  0.2-    090919 235  0.1+  0.5-    091015 585  1.1+  0.4+
090826 703  1.4-  0.1+    090919 235  0.0   0.9-    091015 585  1.6+  1.2+
090826 703  0.8-  0.3+    090919 235  0.2-  0.9-    091015 473  0.1-  0.0
090828 J75  0.6+  0.7-    090923 B33  1.4+  0.7-    091015 473  0.0   0.1+
090828 J75  0.4+  1.1-    090923 B33  0.9+  0.5+    091016 B74  0.0   0.5+
090828 J75 (1.1+  2.1-)   090923 B33  0.9+  0.1-    091016 B74  0.0   0.1+
090830 703  0.3+  0.3-    090923 B33  0.3-  0.2-    091016 B74  0.4+  0.3-
090830 703  0.2+  0.4-    091003 J47  0.0   0.0     091017 E16  0.2+  0.8+
090830 703  0.7-  0.3-    091003 J47  0.8+  0.6+    091017 E16  1.3+  0.3-
090830 703  0.2-  0.1+    091005 585  0.7-  0.2-    091017 204  0.1-  0.4+
090909 J75  0.1-  0.1-    091005 585  0.4-  0.3-    091019 215 (0.3-  2.9-)
090909 J75  0.4-  0.0     091006 213  0.2+  0.0     091021 A79  1.1+  1.0-
090909 J75  0.6+  0.4+    091006 213  0.2+  0.1+    091021 A79  0.3-  0.0
090912 291  0.2-  0.2+    091009 E16  0.2-  0.2+    091022 291  0.0   0.3+
090912 291  0.1-  0.2+    091009 E16  0.4-  0.9+    091022 291  0.4-  0.1-
090912 291  0.0   0.2+    091010 349  1.4-  0.1-    091022 291  0.3-  0.3+
090912 J95  0.3+  0.2-    091010 349  1.1-  0.5+    091022 G96  0.1-  0.1-
090912 J95  0.0   0.2-    091010 204  0.5-  1.1-    091022 G96  0.3-  0.0
090914 704  1.6+  0.2+    091011 E16  0.1+  0.2-    091022 G96  0.1-  0.5-
090914 704  0.3+  1.0+    091011 E16  0.3-  0.2+    091022 G96  0.7+  0.2+
090914 704 (2.4+  1.7+)   091011 213  0.1-  0.6-    091023 E85  0.2-  0.7-
090914 704  0.3+  0.8+    091011 213  0.2-  0.4-    091023 E85  0.1+  0.2-
090914 704  0.2-  1.2+    091011 J47  0.6-  0.2-    091023 E85  0.3-  0.2+
090916 H10  0.2-  0.2+    091011 213  0.2-  0.2+    091024 213  0.6+  0.0
090916 H10  1.4-  0.4+    091011 J47  0.5-  0.6-    091024 213  0.7+  0.2+
090916 H10  1.1-  0.5+    091011 B37  0.5-  0.1+    091025 130  1.1+  1.0-
090916 H10  0.4+  1.1+    091011 J47  0.3-  0.8-

Brian G. Marsden             (C) Copyright 2009 MPC           M.P.E.C. 2009-U131

Read MPEC 2009-U130 Read MPEC 2009-U132

Valid HTML 4.01!